• MPC Preparation (Info)

  • MPEC 2014-N39 : 2014 ML60

    The following Minor Planet Electronic Circular may be linked-to from your own Web pages, but must not otherwise be redistributed electronically.

    A form allowing access to any MPEC is at the bottom of this page.


    Read MPEC 2014-N38 Read MPEC 2014-N40


    M.P.E.C. 2014-N39                                Issued 2014 July 6, 14:09 UT
    
         The Minor Planet Electronic Circulars contain information on unusual
             minor planets and routine data on comets.  They are published
       on behalf of Commission 20 of the International Astronomical Union by the
              Minor Planet Center, Smithsonian Astrophysical Observatory,
                              Cambridge, MA 02138, U.S.A.
    
                 Prepared using the Tamkin Foundation Computer Network
    
                                  MPC@CFA.HARVARD.EDU
                URL https://www.minorplanetcenter.net/    ISSN 1523-6714
    
                                       2014 ML60
    
    Observations:
         K14M60L* C2014 06 30.38685 16 38 04.458-02 30 02.37         21.2 wLEN039F51
         K14M60L  C2014 06 30.39825 16 38 03.629-02 30 06.76         21.2 wLEN039F51
         K14M60L  C2014 06 30.40958 16 38 02.804-02 30 11.57         21.2 wLEN039F51
         K14M60L KC2014 07 01.21481 16 37 08.64 -02 35 44.6          20.8 RoEN039291
         K14M60L KC2014 07 01.21926 16 37 08.33 -02 35 46.9          20.9 RoEN039291
         K14M60L KC2014 07 01.22372 16 37 08.01 -02 35 49.2          20.7 RoEN039291
         K14M60L =C2014 07 01.41499 16 36 54.89 -02 37 07.9          20.7  tEN039568
         K14M60L =C2014 07 01.41624 16 36 54.80 -02 37 08.4          20.6  tEN039568
         K14M60L =C2014 07 01.41750 16 36 54.71 -02 37 09.0          20.7  tEN039568
         K14M60L KC2014 07 02.22549 16 36 01.51 -02 43 04.1          20.5 RqEN039H36
         K14M60L KC2014 07 02.23804 16 36 00.64 -02 43 10.0          20.7 RqEN039H36
         K14M60L KC2014 07 02.25061 16 35 59.73 -02 43 15.3          20.5 RqEN039H36
         K14M60L KC2014 07 02.95835616 35 14.07 -02 48 38.4          20.8 VqEN039I93
         K14M60L KC2014 07 02.99517716 35 11.62 -02 48 55.0          20.6 VqEN039I93
         K14M60L KC2014 07 06.45163 16 31 42.02 -03 17 42.0          20.1 RtEN039474
         K14M60L KC2014 07 06.45515 16 31 41.76 -03 17 44.2          20.9 RtEN039474
         K14M60L KC2014 07 06.45867 16 31 41.58 -03 17 46.1          20.7 RtEN039474
    
    Observer details:
    291 LPL/Spacewatch II.  Observer R. S. McMillan.  1.8-m f/2.7 reflector + CCD.
    474 Mount John Observatory, Lake Tekapo.  Observers A. C. Gilmore,
        P. M. Kilmartin.  Measurer P. M. Kilmartin.  1.0-m f/7.7 reflector + CCD.
    568 Mauna Kea.  Observers R. J. Wainscoat, D. Woodworth.  Measurers P. Veres,
        R. J. Wainscoat.  3.6-m Canada-France-Hawaii Telescope + CCD.
    F51 Pan-STARRS 1, Haleakala.  Observers N. Primak, A. Schultz, T. Goggia,
        M. Willman.  1.8-m Ritchey-Chretien + CCD.
    H36 Sandlot Observatory, Scranton.  Observer G. Hug.  0.56-m reflector + CCD.
    I93 St Pardon de Conques.  Observer F. Losse.  0.40-m f/3.7 reflector + CCD.
    
    Orbital elements:
    2014 ML60                                                Earth MOID = 0.2222 AU
    Epoch 2014 May 23.0 TT = JDT 2456800.5                  MPC
    M 318.51684              (2000.0)            P               Q
    n   0.27209842     Peri.  209.85915     +0.96635417     +0.22227486
    a   2.3585877      Node   136.66959     -0.18234343     +0.94692005
    e   0.4848508      Incl.   10.87255     -0.18141248     +0.23224191
    P   3.62           H   19.1           G   0.15           U   7
    Residuals in seconds of arc
    140630 F51  0.0   0.0     140701 568  0.0   0.3-    140702 I93  0.3-  0.2-
    140630 F51  0.0   0.2+    140701 568  0.0   0.3-    140702 I93  0.2+  0.3+
    140630 F51  0.0   0.1-    140701 568  0.0   0.3-    140706 474  0.3+  0.2+
    140701 291  0.1+  0.4+    140702 H36  0.1+  0.2+    140706 474  0.4-  0.1-
    140701 291  0.2+  0.0     140702 H36  0.1+  0.1-    140706 474  0.1+  0.1-
    140701 291  0.2+  0.4-    140702 H36  0.6-  0.2+
    
    Ephemeris:
    2014 ML60                a,e,i = 2.36, 0.48, 11                  q = 1.2150
    Date    TT    R. A. (2000) Decl.     Delta      r     Elong.  Phase     V
    2014 06 06    17 08 22.3 -01 45 17   0.8428  1.8264   158.9    11.5    20.7
    ...
    2014 06 21    16 49 35.6 -01 45 15   0.7660  1.7333   152.8    15.5    20.6
    ...
    2014 06 29    16 39 40.8 -02 21 04   0.7423  1.6840   146.0    19.7    20.6
    ...
    2014 07 05    16 33 07.4 -03 05 04   0.7315  1.6473   140.3    23.2    20.6
    2014 07 06    16 32 08.2 -03 13 46   0.7302  1.6412   139.4    23.8    20.6
    2014 07 07    16 31 11.1 -03 22 51   0.7290  1.6351   138.4    24.4    20.6
    ...
    2014 07 13    16 26 16.7 -04 25 00   0.7245  1.5989   132.7    27.9    20.7
    ...
    2014 07 21    16 22 10.4 -06 06 13   0.7243  1.5516   125.3    32.3    20.7
    ...
    2014 08 05    16 23 13.2 -09 59 53   0.7357  1.4665   112.9    39.6    20.8
    
    A. U. Tomatic                (C) Copyright 2014 MPC           M.P.E.C. 2014-N39
    

    Read MPEC 2014-N38 Read MPEC 2014-N40


    MPEC number:

    Enter an MPEC number in one of the following forms:

    • 1997-B01 (the full form)
    • J97B01 (the packed version of the full form)
    • B01 (the abbreviated form)